When you browse on this site, cookies collect data to enhance your experience and personalize the content and advertising you see.
Visit our Privacy Policy to learn more. By continuing to use the site, you agree to this use of cookies and data.
  • In Portugal
  • List of Countries
  • For 7 days
  • Water Temperature
  • Satellite Maps
  • Weather Map
  • Weather Widgets
  • user-avatar
    Login

    Hourly Weather Shpileva

    Today, 18 February, Monday

    Time Temperature Precipitation Wind Pressure Humidity
    00:00 -5°C° 0 mm 6 mps 739 mmHg 79%
    01:00 -6°C° 0 mm 6 mps 739 mmHg 80%
    02:00 -7°C° 0 mm 4 mps 739 mmHg 84%
    03:00 -7°C° 0 mm 5 mps 740 mmHg 85%
    04:00 -7°C° 0 mm 5 mps 741 mmHg 85%
    05:00 -8°C° 0 mm 6 mps 741 mmHg 85%
    06:00 -9°C° 0 mm 6 mps 742 mmHg 85%
    07:00 -9°C° 0 mm 6 mps 743 mmHg 86%
    08:00 -9°C° 0 mm 6 mps 743 mmHg 86%
    09:00 -8°C° 0 mm 6 mps 744 mmHg 84%
    10:00 -8°C° 0 mm 6 mps 744 mmHg 81%
    11:00 -6°C° 0 mm 6 mps 745 mmHg 79%
    12:00 -6°C° 0 mm 6 mps 745 mmHg 78%
    13:00 -6°C° 0 mm 6 mps 746 mmHg 78%
    14:00 -6°C° 0 mm 5 mps 746 mmHg 78%
    15:00 -6°C° 0 mm 5 mps 747 mmHg 80%
    16:00 -7°C° 0 mm 4 mps 747 mmHg 82%
    17:00 -7°C° 0 mm 3 mps 748 mmHg 85%
    18:00 -8°C° 0 mm 3 mps 748 mmHg 87%
    19:00 -9°C° 0 mm 3 mps 748 mmHg 89%
    20:00 -9°C° 0 mm 2 mps 749 mmHg 92%
    21:00 -10°C° 0 mm 2 mps 749 mmHg 92%
    22:00 -10°C° 0 mm 2 mps 749 mmHg 92%
    23:00 -9°C° 0 mm 1 mps 750 mmHg 92%

    Tomorrow, 19 February, Tuesday

    Time Temperature Precipitation Wind Pressure Humidity
    00:00 -10°C° 0 mm 1 mps 750 mmHg 92%
    01:00 -10°C° 0 mm 1 mps 750 mmHg 92%
    02:00 -10°C° 0 mm 0 mps 750 mmHg 92%
    03:00 -10°C° 0 mm 1 mps 750 mmHg 92%
    04:00 -10°C° 0 mm 1 mps 750 mmHg 92%
    05:00 -12°C° 0 mm 2 mps 750 mmHg 92%
    06:00 -12°C° 0 mm 2 mps 750 mmHg 91%
    07:00 -12°C° 0 mm 3 mps 750 mmHg 90%
    08:00 -12°C° 0 mm 3 mps 750 mmHg 89%
    09:00 -9°C° 0 mm 3 mps 749 mmHg 86%
    10:00 -8°C° 0 mm 4 mps 749 mmHg 84%
    11:00 -7°C° 0 mm 4 mps 748 mmHg 81%
    12:00 -6°C° 0 mm 5 mps 748 mmHg 80%
    13:00 -5°C° 0 mm 5 mps 747 mmHg 79%
    14:00 -4°C° 0 mm 5 mps 747 mmHg 78%
    15:00 -5°C° 0 mm 5 mps 746 mmHg 80%
    16:00 -6°C° 0 mm 5 mps 746 mmHg 81%
    17:00 -6°C° 0 mm 5 mps 745 mmHg 83%
    18:00 -7°C° 0 mm 5 mps 745 mmHg 84%
    19:00 -7°C° 0 mm 5 mps 745 mmHg 86%
    20:00 -7°C° 0 mm 5 mps 744 mmHg 87%
    21:00 -8°C° 0 mm 5 mps 744 mmHg 87%
    22:00 -8°C° 0 mm 5 mps 743 mmHg 87%
    23:00 -8°C° 0 mm 5 mps 743 mmHg 86%

    Day after tomorrow, 20 February, Wednesday

    Time Temperature Precipitation Wind Pressure Humidity
    00:00 -9°C° 0 mm 6 mps 742 mmHg 88%
    01:00 -8°C° 0 mm 6 mps 742 mmHg 89%
    02:00 -8°C° 0 mm 6 mps 741 mmHg 90%
    03:00 -6°C° 0 mm 6 mps 740 mmHg 90%
    04:00 -5°C° 0 mm 6 mps 740 mmHg 91%
    05:00 -5°C° 0 mm 6 mps 739 mmHg 91%
    06:00 -4°C° 0 mm 6 mps 739 mmHg 91%
    07:00 -4°C° 0 mm 6 mps 739 mmHg 91%
    08:00 -4°C° 0 mm 6 mps 738 mmHg 90%
    09:00 -4°C° 0 mm 6 mps 738 mmHg 90%
    10:00 -3°C° 0 mm 6 mps 738 mmHg 90%
    11:00 -3°C° 0 mm 6 mps 737 mmHg 90%
    12:00 -3°C° 0.2 mm 6 mps 737 mmHg 91%
    13:00 -1°C° 0.2 mm 5 mps 737 mmHg 91%
    14:00 -1°C° 0.2 mm 5 mps 737 mmHg 91%
    15:00 -1°C° 0 mm 5 mps 737 mmHg 92%
    16:00 -1°C° 0 mm 5 mps 737 mmHg 92%
    17:00 -1°C° 0 mm 4 mps 737 mmHg 92%
    18:00 -1°C° 0.1 mm 4 mps 737 mmHg 92%
    19:00 -1°C° 0.1 mm 4 mps 737 mmHg 91%
    20:00 -1°C° 0.1 mm 5 mps 737 mmHg 91%
    21:00 -1°C° 0.1 mm 5 mps 737 mmHg 91%
    22:00 -1°C° 0.1 mm 5 mps 736 mmHg 91%
    23:00 -1°C° 0.1 mm 5 mps 736 mmHg 91%

    21 February, Thursday

    Time Temperature Precipitation Wind Pressure Humidity
    00:00 -1°C° 0 mm 5 mps 736 mmHg 91%
    01:00 -1°C° 0 mm 5 mps 735 mmHg 90%
    02:00 -1°C° 0 mm 5 mps 735 mmHg 90%
    03:00 -2°C° 0.3 mm 6 mps 735 mmHg 90%
    04:00 -2°C° 0.3 mm 6 mps 735 mmHg 89%
    05:00 -2°C° 0.3 mm 6 mps 734 mmHg 89%
    06:00 -4°C° 0.1 mm 6 mps 735 mmHg 87%
    07:00 -5°C° 0.1 mm 5 mps 735 mmHg 86%
    08:00 -7°C° 0.1 mm 5 mps 735 mmHg 85%
    09:00 -6°C° 0 mm 6 mps 736 mmHg 84%
    10:00 -5°C° 0 mm 6 mps 736 mmHg 82%
    11:00 -4°C° 0 mm 6 mps 736 mmHg 81%
    12:00 -4°C° 0.1 mm 6 mps 736 mmHg 80%
    13:00 -4°C° 0.1 mm 6 mps 737 mmHg 79%
    14:00 -4°C° 0.1 mm 7 mps 737 mmHg 78%
    15:00 -5°C° 0.1 mm 6 mps 737 mmHg 77%
    16:00 -6°C° 0.1 mm 6 mps 738 mmHg 77%
    17:00 -8°C° 0.1 mm 6 mps 738 mmHg 76%
    18:00 -9°C° 0 mm 6 mps 739 mmHg 78%
    19:00 -10°C° 0 mm 5 mps 740 mmHg 79%
    20:00 -11°C° 0 mm 5 mps 741 mmHg 80%
    21:00 -11°C° 0 mm 5 mps 741 mmHg 80%
    22:00 -12°C° 0 mm 5 mps 742 mmHg 81%
    23:00 -12°C° 0 mm 5 mps 742 mmHg 81%

    22 February, Friday

    Time Temperature Precipitation Wind Pressure Humidity
    00:00 -13°C° 0 mm 5 mps 743 mmHg 82%
    01:00 -13°C° 0 mm 5 mps 743 mmHg 83%
    02:00 -13°C° 0 mm 5 mps 744 mmHg 84%
    03:00 -13°C° 0 mm 5 mps 745 mmHg 83%
    04:00 -14°C° 0 mm 5 mps 745 mmHg 82%
    05:00 -14°C° 0 mm 5 mps 746 mmHg 82%
    06:00 -14°C° 0 mm 5 mps 747 mmHg 82%
    07:00 -15°C° 0 mm 6 mps 748 mmHg 81%
    08:00 -15°C° 0 mm 6 mps 748 mmHg 81%
    09:00 -15°C° 0 mm 6 mps 749 mmHg 78%
    10:00 -14°C° 0 mm 7 mps 750 mmHg 76%
    11:00 -13°C° 0 mm 7 mps 750 mmHg 73%
    12:00 -13°C° 0 mm 7 mps 750 mmHg 72%
    13:00 -12°C° 0 mm 7 mps 751 mmHg 71%
    14:00 -11°C° 0 mm 6 mps 751 mmHg 71%
    15:00 -11°C° 0 mm 6 mps 751 mmHg 74%
    16:00 -12°C° 0 mm 5 mps 752 mmHg 77%
    17:00 -13°C° 0 mm 5 mps 752 mmHg 81%
    18:00 -12°C° 0 mm 4 mps 753 mmHg 82%
    19:00 -12°C° 0 mm 4 mps 753 mmHg 83%
    20:00 -14°C° 0 mm 4 mps 754 mmHg 85%
    21:00 -14°C° 0 mm 4 mps 754 mmHg 86%
    22:00 -15°C° 0 mm 4 mps 754 mmHg 87%
    23:00 -15°C° 0 mm 4 mps 755 mmHg 88%

    23 February, Saturday

    Time Temperature Precipitation Wind Pressure Humidity
    00:00 -16°C° 0 mm 4 mps 755 mmHg 89%
    01:00 -15°C° 0 mm 3 mps 755 mmHg 90%
    02:00 -16°C° 0 mm 3 mps 755 mmHg 90%
    03:00 -16°C° 0 mm 3 mps 755 mmHg 91%
    04:00 -16°C° 0 mm 3 mps 755 mmHg 92%
    05:00 -16°C° 0 mm 3 mps 755 mmHg 93%
    06:00 -16°C° 0 mm 3 mps 755 mmHg 92%
    07:00 -16°C° 0 mm 3 mps 755 mmHg 91%
    08:00 -16°C° 0 mm 3 mps 755 mmHg 91%
    09:00 -14°C° 0 mm 2 mps 755 mmHg 87%
    10:00 -13°C° 0 mm 2 mps 755 mmHg 82%
    11:00 -10°C° 0 mm 2 mps 754 mmHg 78%
    12:00 -10°C° 0 mm 2 mps 754 mmHg 75%
    13:00 -9°C° 0 mm 2 mps 753 mmHg 73%
    14:00 -8°C° 0 mm 2 mps 752 mmHg 70%
    15:00 -8°C° 0 mm 1 mps 752 mmHg 73%
    16:00 -9°C° 0 mm 1 mps 752 mmHg 76%
    17:00 -10°C° 0 mm 0 mps 751 mmHg 79%
    18:00 -10°C° 0 mm 1 mps 752 mmHg 81%
    19:00 -10°C° 0 mm 1 mps 752 mmHg 83%
    20:00 -11°C° 0 mm 1 mps 752 mmHg 85%
    21:00 -11°C° 0 mm 1 mps 752 mmHg 86%
    22:00 -11°C° 0 mm 1 mps 752 mmHg 88%
    23:00 -12°C° 0 mm 1 mps 752 mmHg 89%
    Show more